Updated24/08/2019 12:05 
 

GeoURL
free counters
Scottish Weather Network UK Weather Network Cumulus Top Weather Sites

Peebles Weather - Charts

Raw Data, Raw Data Expanded

Ignore low humidity and Dew Point values. Something wrong with the sensor.
Daytime temperatures are in direct sunlight so may be higher than official air temperature values.
As with any other website, we log your IP address and browser type in the server logs for diagnostic reasons. Cookies are used to record visit time and gauges preferences. No personal information is stored or processed.

All times are in local time (GMT, or BST in summer) unless specified.

2019/08/24 10:50 EGPH 241050Z 22009KT CAVOK 21/15 Q1018
24.8°C 0.0 mm 0.0 mm 0.0 mm 4.7 mph 9.8 mph 1013.6 hPa 52% X-Ray Solar Flare Level
Planetary K-Index
Planetary K-Index History
Station Warn Rain Snow Flood Wind Ltng Heat Cold Glob Moon Temp Rain 1h Rain Sat Rain 24h Wind 10m Gust Pressure Hum Proton Levels

0.39 m Waning Crescent Comfortable F2-SSE F: A: Kp:0 SSN:0

Charts

 

XHTML 1.1 | CSS